NWS Home NWS Lubbock West Texas Mesonet Latest Conditions as of 0839 PM, Mon Jan 16, 2017

Latest   N   C   S   Daily Sum   3hrΔ   24hrΔ   Soil Data 
Site Map   24hr Precip   72hr Precip   Google Plot


Station Time of Last Temp Dew Pt. RH Wind Direction Wind Speed Wind Gust Max Wind Max Temp Min Temp Max RH Min RH Altimeter 1HR Rain Today's Rain Solar Rad Wind Chill
Abernathy 5ENE  08:35 PM 34 33 95% NE57 18 mph 287° @ 0105 PM 52 32 100 65 30.11" 0 0 0 29
Aiken 3WSW  08:35 PM 35 33 93% N89 20 mph 309° @ 0219 PM 50 30 100 64 30.11" 0 0.01 0 28
Amarillo 15NNW   08:35 PM 35 32 89% NW911 26 mph 308° @ 0144 PM 44 31 100 68 30.12" 0 0.45 0 28
Amarillo 7SSE  08:35 PM 37 32 81% NW1012 29 mph 313° @ 1236 PM 43 30 98 69 30.11" 0 0.23 0  
Amarillo 9NNE  08:35 PM 37 33 85% NW910 26 mph 311° @ 0149 PM 43 30 100 72 30.12" 0 0.26 0  
Amherst 1NE  08:35 PM 38 34 89% N79 18 mph 296° @ 1215 PM 50 32 100 65 30.09" 0 0 0  
Andrews 2E  08:35 PM 47 37 67% E34 17 mph 224° @ 0245 PM 62 34 96 36 30.05" 0 0.01 0  
Anton 6SSW  08:35 PM 39 36 91% NE79 18 mph 306° @ 0105 PM 53 32 100 67 30.10" 0 0.01 0  
Aspermont 3NE  08:35 PM 46 38 73% N811 18 mph 261° @ 1020 AM 62 37 100 46 30.09" 0 0.01 0  
Big Bend NP - Persimmon Gap  08:35 PM 59 35 41% N1214 18 mph 11° @ 0831 PM 69 36 87 25 29.99" 0 0 0  
Big Lake 1WNW  08:35 PM 53 39 58% NE67 21 mph 292° @ 1236 AM 67 37 91 25 30.04" 0 0 0  
Bootleg 11WNW  08:35 PM 37 31 80% N1113 20 mph 336° @ 0434 PM 46 27 97 58 30.13" 0 0.18 0  
Boys Ranch 1WSW  08:35 PM 35 32 89% NW46 21 mph 299° @ 0101 PM 44 31 99 69 30.14" 0 0.43 0  
Brownfield 2S  08:35 PM 46 38 77% NE1418 20 mph 34° @ 0750 PM 60 36 99 46 30.08" 0 0 0  
Canadian 6E  08:35 PM 39 34 82% NW1114 31 mph 300° @ 1216 PM 43 31 100 70 30.06" 0 0.24 0  
Caprock Canyons State Park  08:35 PM 41 34 75% NW24 24 mph 275° @ 1211 PM 51 32 100 57 30.11" 0 0.01 0  
Childress 2NNE  08:35 PM 39 34 82% NW810 25 mph 271° @ 1215 PM 54 32 100 51 30.11" 0 0.05 0  
Clarendon 2WSW  08:35 PM 36 32 85% NW912 29 mph 305° @ 0100 PM 46 27 97 62 30.09" 0 0.13 0  
Claude 12SW  08:35 PM 38 33 83% NW1315 26 mph 313° @ 1208 PM 42 29 99 72 30.10" 0 0.19 0  
Clyde 2WNW  08:35 PM 51 43 74% E810 18 mph 260° @ 0147 PM 62 38 100 52 30.06" 0 0.01 0  
Coyanosa 2N  08:35 PM 49 40 72% E66 19 mph 243° @ 0225 PM 67 37 87 27 30.03" 0 0 0  
Dell City  08:35 PM 43 34 70% W910 14 mph 277° @ 0651 AM 59 34 92 31 30.05" 0 0 0  
Denver City 7WNW  08:35 PM 43 38 86% NE1013 17 mph 244° @ 1015 AM 61 31 100 34 30.07" 0 0.01 0  
Dimmitt 2NE  08:35 PM 33 31 95% NW910 23 mph 314° @ 0325 PM 45 25 100 71 30.10" 0 0.10 0 25
Dora NM 2SW  08:35 PM 38 36 93% NE1214 22 mph 314° @ 0105 PM 53 30 100 56 30.09" 0 0 0  
Dozier 3W  08:35 PM 40 34 78% NW89 28 mph 297° @ 1249 PM 47 29 98 63 30.10" 0 0.07 0  
Floydada 2NNE  08:35 PM 32 30 92% N00 21 mph 280° @ 0125 PM 52 29 100 56 30.10" 0 0.01 0  
Fluvanna 3WNW  08:35 PM 47 39 76% N911 16 mph 248° @ 1220 PM 59 33 100 51 30.07" 0 0 0  
Fort Chadbourne  08:35 PM 51 45 80% NE22 12 mph 303° @ 0137 PM 66 32 100 43 30.05" 0 0.01 0  
Fort Lancaster  08:35 PM 58 40 51% E34 11 mph 322° @ 1221 AM 71 33 98 28 30.02" 0 0.01 0  
Fort Lewis CO  08:35 PM 30 29 97% E79 22 mph 303° @ 1224 AM 34 30 99 87 30.05" 0 0.04 0 23
Fort McKavett  08:35 PM 54 45 72% E34 12 mph 255° @ 1238 PM 68 33 100 37 30.03" 0 0.01 0  
Friona 2NE  08:35 PM 37 33 85% N1013 22 mph 351° @ 0205 PM 48 24 100 60 30.12" 0 0.17 0  
Gail 2ESE  08:35 PM 46 40 82% N811 13 mph 257° @ 0120 PM 62 32 99 46 30.06" 0 0.02 0  
Goodlett 3W  08:35 PM 40 34 82% NW1011 26 mph 279° @ 0105 PM 55 31 99 52 30.09" 0 0.10 0  
Goodnight  08:35 PM 35 32 88% NW1315 31 mph 305° @ 1211 PM 45 28 100 67 30.10" 0 0.19 0 26
Graham 5SSW  08:35 PM 46 38 77% N1823 23 mph 14° @ 0835 PM 59 34 100 57 30.07" 0 0 0  
Guadalupe Mtns Natl Park  08:35 PM 46 24 43% W810 44 mph 297° @ 0221 AM 50 35 89 38 30.05" 0 0 0  
Guthrie 10WSW  08:35 PM 43 34 72% N711 23 mph 289° @ 0300 PM 62 33 98 42 30.09" 0 0.01 0  
Hart 3N  08:35 PM 34 32 93% N810 21 mph 333° @ 0415 PM 47 29 100 67 30.11" 0 0.06 0 27
Haskell 1NW  08:35 PM 46 40 82% N915 16 mph 274° @ 1055 AM 60 39 100 49 30.07" 0.01 0.83 0  
Hereford 2NW  04:20 PM 43 34 73% N1316 22 mph 337° @ 0410 PM 45 21 100 70 30.01" 0 0.21 71  
Jayton 1SSE  08:35 PM 45 38 77% N911 16 mph 260° @ 1045 AM 60 33 100 47 30.08" 0 0.01 0  
Junction 1SSW  08:35 PM 52 50 92% W12 9 mph 43° @ 0224 PM 68 38 100 43 30.02" 0 0 0  
Knox City 3NW  08:35 PM 47 38 71% N912 15 mph 188° @ 0500 AM 62 38 95 43 30.10" 0 0 0  
Lake Alan Henry 1NW  08:35 PM 47 37 70% NE1012 17 mph 22° @ 0814 PM 62 36 94 45 30.08" 0 0 0  
Lamesa 2SE  08:35 PM 46 43 89% E45 13 mph 252° @ 0130 PM 60 32 100 56 30.06" 0 0 0  
Levelland 4S  08:35 PM 41 35 81% NE911 18 mph 21° @ 0715 PM 57 34 96 50 30.09" 0 0 0  
Lomax 1SSE  08:35 PM 47 43 86% SE44 14 mph 227° @ 0339 PM 64 34 98 41 30.05" 0 0.02 0  
Lubbock 3WNW TTU  08:35 PM 42 36 80% N813 16 mph 263° @ 0540 AM 56 34 100 56 30.10" 0 0.01 0  
McCamey 1SSW  08:35 PM 55 40 57% NE68 18 mph 293° @ 0333 PM 68 34 98 28 30.04" 0 0.01 0  
McLean 1E  08:35 PM 38 32 81% NW1114 32 mph 293° @ 1120 AM 45 29 100 63 30.07" 0 0.28 0  
Memphis 1NE  08:35 PM 39 34 82% NW56 25 mph 296° @ 1245 PM 50 31 100 58 30.10" 0 0.06 0  
Menard 2NW   08:35 PM 52 45 76% N00 15 mph 304° @ 1215 PM 69 33 100 36 30.03" 0 0 0  
Mertzon 3NNE  08:35 PM 46 40 79% NW33 18 mph 280° @ 1203 AM 69 36 94 31 30.05" 0 0 0  
Morton 1ENE  08:35 PM 38 35 90% NE67 20 mph 352° @ 0140 PM 56 33 100 55 30.09" 0 0 0  
Muleshoe 2SSW  08:35 PM 38 34 86% N911 16 mph 22° @ 0650 PM 50 29 100 63 30.09" 0 0.01 0  
New Home  08:35 PM 43 37 79% NE912 16 mph 286° @ 0757 AM 59 36 99 53 30.10" 0 0 0  
Northfield 1S  08:35 PM 39 34 83% NW67 25 mph 279° @ 1205 PM 55 30 100 52 30.12" 0 0.04 0  
O'Donnell 1N  08:35 PM 46 40 80% NE1316 18 mph 26° @ 0810 PM 59 31 100 53 30.07" 0 0.01 0  
Olton 6S  08:35 PM 35 33 91% N910 22 mph 353° @ 0515 PM 50 30 98 59 30.09" 0 0.01 0 28
Paducah 10SW  08:35 PM 40 35 85% NW1113 20 mph 317° @ 0325 PM 58 32 100 50 30.10" 0 0 0  
Palo Duro Canyon SP Floor  08:35 PM 42 34 74% NW56 26 mph 296° @ 1254 PM 48 30 99 62 30.12" 0 0.21 0  
Palo Duro Canyon State Park Rim  08:35 PM 39 33 78% NW1012 25 mph 326° @ 0145 PM 45 28 95 65 30.12" 0 0.24 0  
Pampa 2E  08:35 PM 34 32 92% NW1013 32 mph 308° @ 0100 PM 41 28 100 77 30.08" 0 0.36 0 26
Panhandle 1SSW  08:35 PM 36 33 90% NW1012 26 mph 301° @ 0117 PM 39 28 99 81 30.10" 0 0.33 0  
Plains 3N  08:35 PM 43 38 84% NE1217 18 mph 36° @ 0825 PM 61 30 100 39 30.08" 0 0 0  
Plainview 1S  08:35 PM 38 34 87% N810 21 mph 329° @ 0225 PM 49 30 100 64 30.09" 0 0.01 0  
Post 1NE  08:35 PM 45 38 76% N912 13 mph 258° @ 0155 PM 60 36 100 52 30.09" 0 0.01 0  
Ralls 1SE  08:35 PM 42 34 75% N1013 22 mph 297° @ 0705 AM 54 34 97 56 30.10" 0 0.01 0  
Reese Center  08:35 PM 40 36 84% NE911 18 mph 15° @ 0450 PM 55 32 100 59 30.10" 0 0.01 0  
Roaring Springs 3N  08:35 PM 41 36 83% NW79 22 mph 287° @ 0155 PM 55 30 100 59 30.11" 0 0 0  
San Angelo 7NW  08:35 PM 53 42 66% NE67 19 mph 276° @ 1255 PM 69 35 91 32 30.03" 0 0 0  
Seagraves 1SW  08:35 PM 45 39 82% NE711 18 mph 34° @ 0715 PM 61 31 100 43 30.07" 0 0 0  
Seminole 2NNE  08:35 PM 46 42 87% NE1013 18 mph 24° @ 0800 PM 62 31 99 37 30.06" 0 0.01 0  
Seymour 3NW  08:35 PM 45 38 77% N911 18 mph 240° @ 1210 AM 58 39 97 51 30.09" 0 0 0  
Sierra Blanca 1SSE  08:35 PM 45 32 59% N45 20 mph 303° @ 0235 PM 58 36 84 32 30.07" 0 0 0  
Silverton 7ESE  08:35 PM 34 31 89% NW1012 28 mph 284° @ 1155 AM 49 30 100 59 30.09" 0 0.56 0 26
Slaton 2NE  08:35 PM 43 36 78% N1117 22 mph 278° @ 0520 AM 56 35 100 M 30.10" 0 0 0  
Snyder 3E  08:35 PM 49 43 80% NE1112 18 mph 293° @ 0410 AM 62 33 100 52 30.05" 0 0.01 0  
Snyder 3SSW  08:35 PM 48 42 77% NE67 15 mph 307° @ 0412 AM 61 34 100 48 30.06" 0 0.01 0  
Spur 1W  08:35 PM 44 36 73% N1216 16 mph 306° @ 0205 PM 59 32 100 50 30.08" 0 0 0  
St. Lawrence 5SW  08:35 PM 50 43 78% NE78 19 mph 249° @ 1145 AM 63 35 92 43 30.04" 0 0.01 0  
Sterling City 4WSW  08:35 PM 43 37 81% W45 18 mph 242° @ 1123 AM 65 32 96 37 30.05" 0 0 0  
Sundown 8WSW  08:35 PM 42 37 83% NE912 20 mph 283° @ 0140 PM 60 34 100 41 30.09" 0 0 0  
Sweetwater 11SW   08:35 PM 47 42 83% NE1011 16 mph 258° @ 0957 AM 61 35 100 49 30.07" 0 0.01 0  
Tahoka 3NNE  08:35 PM 44 38 80% N1317 18 mph 10° @ 0834 PM 61 35 100 48 30.08" 0 0 0  
Tarzan 2WNW  08:35 PM 49 44 82% NE88 14 mph 241° @ 0357 PM 62 33 98 40 30.05" 0 0.01 0  
Tatum NM 2SW  08:35 PM 43 37 81% NE1015 20 mph 290° @ 1215 PM 59 29 96 39 30.08" 0 0 0  
Throckmorton 1SW  08:35 PM 46 39 79% W12 20 mph 299° @ 1119 AM 59 38 100 52 30.08" 0 0.02 0  
Tulia 2ENE  08:35 PM 39 35 86% NW1521 24 mph 314° @ 0145 PM 46 26 100 72 30.10" 0 0.24 0  
Turkey 2WSW  08:35 PM 37 34 87% NW55 26 mph 282° @ 1230 PM 52 32 100 58 30.10" 0 0 0  
Umbarger 3NNE  08:35 PM 37 34 88% NW89 24 mph 329° @ 0308 PM 41 23 100 76 30.12" 0 0.30 0  
Vigo Park  08:35 PM 39 33 80% NW1620 28 mph 301° @ 1258 PM 46 25 100 64 30.10" 0 0.68 0  
Wall 1E  08:35 PM 51 45 80% N00 0 mph 0° @ 1205 AM 68 37 90 36 30.04" 0 0.01 0  
Weinert 2NNE  08:35 PM 45 40 83% N79 16 mph 255° @ 0706 AM 62 39 97 45 30.09" 0 0.01 0  
Welch  08:35 PM 47 41 79% NE1113 17 mph 38° @ 0717 PM 59 32 100 51 30.09" 0 0.02 0  
White River Lake 6NW  08:35 PM 42 35 77% N1517 23 mph 285° @ 0650 AM 58 35 98 51 30.08" 0 0.01 0  
Wolfforth 6SSW  08:35 PM 44 37 79% N1114 20 mph 14° @ 0755 PM 57 36 100 56 30.09" 0 0.01 0  

West Texas Mesonet Home   Site Map/Menu  NWS Lubbock Soil Data  Daily Summary Page  24hr Precip  72hr Precip  Google Plot